sat.trackr.live / text

‹ back to catalog

INMARSAT 5-F4

NORAD 42698 · 2017-025A

PAYLOAD ACTIVE UNKNOWN

§ Identity

Operator
Country
IM
Launch date
2017-05-15
Launch site
AFETR
Launch vehicle
Mass (kg)
RCS (m²)

Purposes: comms

External: N2YO · Heavens-Above · Gunter

§ Orbital elements

Epoch: 2026-05-25T04:00:45.715392Z

Period
1,436.08 min
Inclination
0.0174°
Eccentricity
0.0000308
Mean motion
1.00272710 rev/d
Perigee alt
35,785.0 km
Apogee alt
35,787.6 km
Semi-major
42,164.5 km
B*
0.0000e+0
RAAN
333.0920°
Arg perigee
66.2382°
Mean anomaly
320.1197°
Rev number
3,304

§ Raw data

INMARSAT 5-F41 42698U 17025A   26145.16719578  .00000073  00000+0  00000+0 0  99942 42698   0.0174 333.0920 0000308  66.2382 320.1197  1.00272710 33044

JSON: /api/v1/satellites/42698 · /tle

For live sub-satellite position, see the globe view (requires WebGL).

§ Visibility from observer

Set your observer location to see the next 7 days of passes ≥ 10°. The values pass through the URL so the page stays shareable.

No JS? Fill the form by hand. The geolocation button needs JavaScript.